Temperature
13 13 13 13 13 13 13 13 13 13 12 12 12 12 12 12 12 12 12 12 12 12 12 12 12 12 12 12 12 12 12 12 12 12 12 12 12 12 12 12 12 12 12
13 13 13 13 13 13 13 13 13 12 12 12 12 12 12 11 11 11 11 11 12 12 12 12 12 12 11 11 11 11 11 12 12 12 11 11 12 12 12 12 11 11 11
12 13 12 12 12 12 12 12 12 12 12 12 12 11 11 11 11 11 11 11 11 11 11 11 11 11 11 11 11 11 11 11 11 11 11 11 11 11 11 11 11 11 11
12 12 12 12 12 12 12 12 12 12 12 12 11 11 11 11 11 11 11 11 11 11 11 11 11 11 11 11 11 10 10 10 11 11 11 11 11 11 11 11 11 10 11
12 12 12 12 12 12 12 12 12 12 12 11 11 11 11 10 10 10 10 10 10 10 10 10 10 10 10 10 10 10 10 10 10 10 10 10 10 10 10 10 10 10 10
12 12 12 12 12 12 12 11 11 11 11 11 11 11 10 10 10 10 10 10 10 10 10 10 10 10 10 10 10 10 10 10 10 10 10 10 10 10 10 10 10 10 10
11 11 11 11 11 11 11 11 11 11 11 11 10 10 10 10 10 10 9 9 10 10 9 9 9 9 9 9 9 9 9 9 9 9 9 10 10 10 9 9 9 9 9
11 11 11 11 11 11 11 11 11 11 10 10 10 10 9 10 9 9 9 9 9 9 9 9 9 9 9 9 9 9 9 9 9 9 9 9 9 9 9 9 9 9 9
11 11 11 11 11 11 11 11 10 10 10 10 10 9 9 9 9 9 9 9 9 9 9 9 9 9 9 9 9 9 8 8 8 8 8 9 9 9 9 9 9 9 9
10 10 10 10 11 10 10 10 10 10 10 10 9 9 9 9 8 8 8 8 8 8 8 8 8 8 8 8 8 8 8 8 8 8 8 8 8 8 8 8 8 8 8
10 10 10 10 10 10 10 10 10 10 9 9 9 9 9 8 8 8 8 8 8 8 8 8 8 8 8 8 8 8 8 8 8 8 8 8 8 8 8 8 8 8 8
10 10 10 10 10 9 9 9 9 9 9 9 9 8 8 8 8 7 7 7 7 8 8 8 8 8 8 8 7 7 7 7 7 7 7 7 7 7 7 7 7 7 7
9 9 9 9 9 9 9 9 9 9 9 8 8 8 8 8 7 7 7 7 7 7 7 7 7 7 7 7 7 7 7 7 7 7 7 7 7 7 7 7 7 7 6
9 9 9 9 9 8 8 8 8 8 8 8 8 8 7 7 7 7 6 6 6 6 7 7 7 7 7 6 6 6 7 7 6 7 6 6 6 6 6 6 6 6 6
8 8 8 8 8 8 8 8 8 8 8 8 7 7 7 7 7 6 6 6 5 5 6 6 6 6 6 6 6 6 6 6 6 6 6 6 6 6 6 6 6 6 6
8 8 8 8 8 8 7 7 7 7 7 7 7 7 7 7 6 6 6 6 5 5 5 6 6 6 6 6 5 5 5 5 6 6 6 5 5 5 5 5 5 5 5
7 7 7 7 7 7 7 7 7 7 6 6 6 6 6 6 6 6 6 5 5 5 4 5 5 5 5 5 5 5 5 5 5 5 5 5 5 5 5 5 5 5 5
7 7 7 6 6 6 6 6 6 6 6 6 6 6 6 6 5 5 5 5 5 4 4 4 5 5 5 4 4 4 4 4 4 4 4 4 4 4 4 4 4 4 4
6 6 6 6 6 6 6 6 5 5 5 5 5 5 5 5 5 5 5 4 4 4 4 4 4 4 4 4 4 4 4 4 4 4 4 4 4 3 4 4 3 3 4
6 6 6 5 5 5 5 5 5 5 5 5 5 5 4 4 4 4 4 4 4 3 3 3 3 3 3 3 3 3 3 3 3 3 3 3 3 3 3 3 3 3 3
6 5 5 5 5 5 5 5 4 4 4 4 4 4 4 4 4 3 3 3 3 3 2 2 2 2 2 2 2 2 2 2 3 3 3 3 3 3 3 3 3 3 2
5 5 5 5 5 4 4 4 4 4 4 4 4 3 3 3 3 3 3 2 2 2 2 2 2 2 2 2 1 1 1 1 2 2 2 2 2 2 2 2 2 2 2
5 4 4 4 4 4 4 4 3 3 3 3 3 3 3 3 3 3 2 2 2 2 1 1 1 1 1 1 1 1 1 1 1 1 1 2 2 2 2 2 2 2 2
4 4 4 4 4 4 3 3 3 3 3 3 3 2 2 2 2 2 2 2 2 1 1 1 1 1 1 0 0 0 0 0 1 1 0 0 1 1 2 1 1 1 1
3 3 3 3 3 3 3 3 2 2 2 2 2 2 2 2 2 1 1 1 1 1 1 1 0 0 0 -0 -0 -0 -0 -0 -0 0 -0 -0 0 1 1 1 1 1 1
3 3 3 3 3 3 3 2 2 2 2 2 2 2 1 1 1 1 1 1 1 1 1 0 0 0 -0 -0 -0 -1 -1 -1 -1 -1 -1 -1 -1 -1 -1 0 1 0 0
Wind_Speed
2 2 2 2 2 2 2 2 2 2 2 2 3 2 2 2 2 2 1 2 2 2 2 2 2 2 3 2 2 2 2 2 3 3 4 4 5 6 6 7 7 7 7
4 3 2 1 1 1 2 1 1 1 1 1 2 2 1 2 1 1 1 2 2 2 2 2 1 1 2 2 2 2 2 2 3 3 4 4 5 5 6 6 7 7 8
4 3 2 1 1 1 2 2 2 2 1 1 1 1 1 1 1 1 1 2 2 2 3 3 2 2 3 3 3 3 3 3 3 3 4 4 5 6 6 6 6 7 7
4 3 2 1 1 2 2 1 1 1 1 1 1 1 0 1 1 1 2 2 2 2 2 3 3 3 4 4 4 4 3 3 3 4 5 5 6 6 6 7 7 8 8
4 3 2 1 2 2 1 1 1 1 1 1 0 0 0 0 0 1 2 2 2 2 2 2 3 3 4 4 5 4 4 4 4 5 5 6 6 7 6 7 7 7 8
4 3 2 2 2 2 1 1 1 1 1 0 0 1 1 1 0 1 1 2 2 2 2 2 3 3 4 4 5 5 5 6 6 6 7 7 7 8 8 8 8 8 9
4 4 3 3 2 2 2 1 1 1 1 1 2 2 2 2 1 1 1 1 1 2 2 2 2 2 2 3 4 5 6 7 7 7 8 8 8 9 9 9 9 9 9
4 4 3 2 2 2 2 2 2 1 1 1 2 1 1 2 2 1 1 0 1 2 2 1 1 1 1 2 3 4 6 6 7 8 8 9 9 9 9 10 9 9 9
4 4 3 3 2 2 2 1 1 2 1 1 1 2 2 2 2 2 1 1 1 1 1 1 1 1 1 2 3 4 5 6 8 9 9 10 10 10 9 9 9 8 8
3 3 3 3 3 2 2 1 2 1 2 1 0 1 1 2 1 2 2 2 2 2 2 1 1 2 2 2 3 4 5 6 8 9 9 10 10 10 10 10 9 9 8
2 2 3 2 2 2 2 2 2 2 2 2 1 0 0 0 1 1 2 3 2 3 3 2 2 2 3 3 3 4 5 6 8 9 10 10 11 11 11 10 9 8 7
0 1 2 2 2 2 2 2 2 2 2 2 1 1 1 1 1 1 2 3 3 3 3 2 2 3 3 3 4 5 6 7 8 9 10 10 10 11 11 10 10 9 8
1 1 1 1 1 1 2 2 2 2 2 3 2 2 1 2 1 1 2 2 3 3 2 2 2 3 3 3 4 5 6 7 8 9 10 10 10 10 10 11 11 10 9
2 2 2 1 1 1 1 1 2 2 2 2 3 2 2 2 1 2 2 1 2 3 2 3 2 2 3 3 5 5 6 7 8 9 9 10 9 10 10 10 10 10 10
2 2 2 2 1 1 1 2 1 2 1 2 3 3 2 2 1 1 2 2 2 3 4 3 2 2 3 4 5 5 6 8 9 9 9 9 9 9 9 10 10 10 9
2 2 2 2 2 1 1 2 1 2 2 2 2 3 2 2 1 1 2 2 2 3 4 3 3 3 4 4 6 5 7 8 8 9 9 9 9 9 9 10 10 9 9
3 3 3 3 2 2 2 2 3 2 3 2 2 3 3 2 2 2 2 2 2 2 5 5 3 3 3 4 5 5 6 7 8 9 10 10 9 9 9 9 9 10 9
3 3 3 3 3 3 3 4 4 4 4 4 4 3 4 3 3 3 2 3 3 3 4 6 4 3 4 4 4 4 5 6 7 9 10 10 10 10 9 9 10 10 10
3 3 3 4 4 4 4 4 5 4 4 5 4 4 4 3 4 3 3 3 3 3 3 4 5 3 3 3 3 4 4 4 6 8 9 9 9 10 10 10 10 10 9
4 4 4 4 4 4 4 4 4 4 4 5 5 5 5 5 5 5 4 4 3 3 3 4 5 4 3 3 2 3 4 3 4 5 7 8 9 11 11 11 10 10 9
4 4 4 4 4 4 5 5 5 5 5 5 5 5 6 7 7 6 5 4 4 3 3 4 4 4 4 3 3 3 5 5 5 3 3 4 5 6 8 10 10 10 10
4 4 4 5 5 5 7 8 6 5 5 6 6 5 6 7 8 9 9 8 6 5 5 4 4 5 6 4 3 3 3 4 5 2 2 5 3 5 6 8 10 10 10
4 4 5 5 6 7 9 9 9 6 6 6 6 6 5 5 7 5 7 9 8 10 9 6 6 6 6 5 4 4 4 5 6 3 2 6 3 5 5 8 11 11 10
4 5 6 6 6 8 10 10 10 7 6 6 7 7 7 7 6 6 5 6 7 7 8 6 7 7 6 5 5 5 5 4 4 3 2 4 4 4 5 7 10 10 10
5 5 5 6 7 8 10 10 9 5 5 7 7 7 7 8 10 10 7 7 7 7 8 10 10 10 11 10 7 3 3 3 5 4 2 3 3 4 4 4 7 9 9
6 5 6 6 7 8 10 11 10 4 6 6 5 6 9 10 11 11 7 7 8 7 5 5 6 7 7 8 8 5 4 4 4 4 3 2 2 2 4 3 3 5 6
Wind_Direction
108 102 101 92 90 86 82 62 42 28 21 19 27 43 49 57 74 74 58 61 51 22 345 304 274 277 277 282 286 270 269 285 294 304 305 299 293 288 288 287 281 279 279
120 124 128 119 89 92 93 93 81 80 52 45 35 36 54 65 83 88 86 65 50 38 19 346 318 311 311 309 308 311 299 306 314 314 311 306 301 299 296 293 287 284 283
121 126 143 144 111 86 78 69 50 59 68 53 34 26 60 58 69 76 74 75 65 49 44 34 20 3 350 340 331 325 320 322 322 321 316 311 308 302 294 292 295 293 289
118 125 142 163 100 82 70 108 94 64 54 43 15 328 35 68 81 89 87 91 86 64 42 41 37 22 9 356 344 340 340 335 328 321 312 310 310 307 302 298 295 292 295
115 117 117 124 101 92 86 113 91 98 70 16 327 276 37 7 137 99 85 85 86 75 58 37 28 27 15 1 353 353 356 349 338 329 319 310 304 305 302 300 300 298 295
116 111 100 83 94 111 97 94 93 75 122 55 33 29 4 350 64 84 95 87 82 73 65 57 40 21 18 10 3 356 351 346 338 333 326 313 302 299 298 298 295 295 292
125 115 111 99 94 120 127 107 97 81 44 59 63 23 2 12 46 68 66 71 52 55 60 55 47 36 7 1 356 351 342 335 330 327 327 322 308 298 296 294 294 296 297
134 124 117 125 109 110 98 81 84 94 48 65 96 91 1 335 343 344 350 44 15 31 36 27 36 21 357 350 332 332 331 328 325 325 327 327 323 312 305 300 297 296 295
131 124 129 130 121 123 130 130 131 127 143 16 87 128 144 235 295 308 298 305 333 345 310 320 336 317 291 312 317 322 322 319 321 324 327 327 326 320 314 310 306 303 299
128 133 133 134 132 135 140 154 144 142 146 156 1 53 148 162 181 295 302 299 296 282 277 285 274 278 273 289 303 315 318 316 318 319 320 321 323 322 319 320 318 313 306
116 131 134 133 135 138 153 140 132 139 145 162 164 124 47 36 161 189 277 300 303 273 265 249 241 246 258 271 284 300 306 308 311 313 314 316 318 320 321 323 319 317 316
65 106 139 135 133 143 167 168 163 159 166 165 160 157 165 185 208 195 250 284 289 283 279 259 243 240 250 262 272 289 298 301 305 309 311 312 315 318 319 320 320 317 313
224 227 166 160 150 164 170 155 163 181 183 179 183 191 194 208 197 196 224 268 284 287 285 281 258 253 261 267 278 290 296 300 302 305 307 311 314 316 317 315 315 314 311
209 207 182 176 173 167 159 153 173 192 189 194 199 197 204 227 204 199 198 211 285 289 277 273 281 264 279 281 280 286 288 297 299 302 303 305 309 312 313 313 312 310 306
208 195 185 194 200 177 169 163 193 211 200 207 211 207 210 227 223 225 210 194 208 263 274 265 273 284 295 282 283 286 287 294 298 300 301 301 306 309 310 311 309 309 306
194 187 205 212 222 219 201 184 199 209 202 221 215 215 222 227 229 230 225 224 215 226 257 270 263 277 289 290 293 292 291 299 302 304 305 301 302 304 305 305 303 303 303
199 200 212 215 223 225 217 208 220 213 212 232 230 220 231 228 227 234 227 224 228 221 255 278 270 282 281 285 300 297 292 292 293 300 302 302 300 299 297 297 299 299 298
211 210 212 216 225 228 224 218 229 226 221 230 236 230 235 235 234 233 224 234 237 231 241 272 284 280 268 271 280 287 293 292 288 292 294 295 295 294 293 294 295 293 291
215 214 211 220 228 229 228 226 227 231 231 233 232 232 240 237 247 246 236 237 244 250 239 254 273 277 273 275 286 291 289 288 289 289 287 287 289 293 292 292 293 292 290
216 221 224 227 229 232 231 231 228 232 238 241 237 236 237 231 238 239 239 237 239 247 248 255 266 275 275 281 282 286 296 290 288 291 288 287 288 291 287 287 287 286 283
225 224 227 234 233 234 234 230 229 232 235 244 247 242 239 235 236 236 241 233 226 236 245 253 264 274 275 279 273 269 283 295 286 270 288 287 288 286 286 284 280 277 278
234 228 229 232 238 246 249 245 237 233 235 240 250 253 250 242 242 248 253 248 233 231 237 242 257 262 267 265 263 264 278 298 294 271 283 286 275 275 276 276 275 277 278
233 238 238 236 242 249 255 255 246 236 235 238 242 249 258 252 249 242 253 256 249 246 239 233 246 253 259 255 257 264 256 258 265 274 292 283 275 272 276 279 279 278 276
233 237 241 240 245 253 255 258 254 240 235 238 237 239 245 252 243 237 238 247 249 248 243 236 236 245 249 249 243 251 255 264 274 264 226 268 284 277 289 286 283 279 276
241 240 240 237 243 257 256 257 251 234 239 246 245 241 241 245 250 245 240 246 256 258 256 247 247 254 260 262 256 251 252 269 280 275 220 238 276 294 293 285 286 287 284
241 245 249 243 242 252 258 257 247 230 240 250 251 249 248 249 252 246 235 237 252 258 253 259 256 259 259 257 251 235 231 247 263 271 231 221 261 306 302 288 293 298 292
Height
1521 1522 1523 1524 1525 1525 1526 1526 1527 1527 1527 1527 1527 1527 1528 1528 1528 1528 1528 1528 1528 1528 1528 1528 1528 1528 1528 1528 1527 1527 1527 1526 1526 1526 1525 1525 1524 1524 1524 1523 1522 1522 1521
1520 1521 1522 1522 1523 1524 1524 1525 1525 1525 1525 1526 1526 1526 1526 1526 1526 1526 1526 1527 1526 1526 1526 1526 1526 1525 1525 1525 1525 1525 1525 1524 1524 1523 1523 1522 1522 1521 1521 1520 1519 1519 1518
1518 1519 1520 1521 1522 1522 1523 1523 1524 1524 1524 1524 1524 1525 1525 1525 1525 1525 1525 1525 1525 1525 1524 1524 1524 1524 1523 1523 1523 1523 1523 1522 1521 1521 1520 1520 1519 1519 1518 1517 1516 1515 1515
1517 1518 1518 1519 1520 1520 1521 1521 1522 1522 1522 1522 1523 1523 1523 1523 1523 1523 1523 1523 1523 1523 1523 1522 1522 1522 1521 1521 1521 1521 1520 1520 1519 1518 1518 1517 1517 1516 1515 1514 1513 1512 1511
1515 1516 1516 1517 1518 1519 1519 1520 1520 1520 1520 1521 1521 1521 1522 1522 1522 1522 1522 1522 1521 1521 1521 1521 1520 1520 1520 1519 1519 1519 1518 1517 1517 1516 1515 1515 1514 1513 1512 1511 1510 1509 1508
1513 1514 1514 1515 1516 1517 1517 1518 1518 1519 1519 1519 1520 1520 1520 1520 1520 1520 1520 1520 1520 1520 1520 1519 1519 1518 1518 1517 1517 1516 1516 1515 1514 1513 1512 1512 1510 1509 1509 1507 1506 1505 1503
1512 1512 1513 1513 1514 1514 1515 1516 1516 1517 1517 1518 1518 1518 1519 1519 1518 1518 1519 1519 1518 1518 1518 1517 1517 1516 1516 1515 1515 1514 1513 1512 1511 1510 1509 1508 1507 1506 1505 1504 1502 1500 1499
1510 1510 1511 1511 1512 1512 1513 1514 1514 1515 1515 1516 1516 1516 1517 1517 1516 1516 1517 1517 1516 1516 1516 1515 1515 1514 1513 1513 1512 1511 1510 1510 1509 1507 1506 1505 1504 1503 1501 1500 1498 1497 1495
1508 1508 1509 1510 1510 1511 1511 1512 1512 1513 1513 1514 1514 1515 1515 1514 1514 1514 1514 1514 1514 1514 1513 1513 1512 1512 1511 1510 1509 1509 1508 1507 1506 1504 1503 1502 1500 1499 1498 1496 1495 1493 1492
1506 1507 1507 1508 1508 1509 1509 1509 1510 1511 1511 1511 1512 1512 1513 1513 1513 1511 1511 1511 1511 1511 1510 1510 1509 1509 1508 1507 1506 1506 1505 1504 1503 1501 1500 1499 1497 1496 1495 1493 1491 1490 1488
1505 1505 1505 1506 1506 1506 1507 1507 1508 1508 1509 1509 1509 1509 1510 1510 1510 1510 1508 1508 1508 1507 1507 1507 1506 1506 1505 1504 1503 1502 1502 1501 1499 1498 1497 1495 1494 1493 1491 1490 1488 1486 1485
1503 1503 1503 1504 1504 1504 1504 1505 1505 1506 1506 1506 1506 1507 1507 1507 1507 1507 1506 1504 1504 1504 1504 1503 1503 1502 1502 1501 1500 1499 1498 1497 1496 1494 1493 1492 1490 1489 1488 1486 1485 1483 1482
1501 1501 1501 1501 1501 1501 1502 1502 1502 1503 1503 1503 1503 1504 1504 1504 1504 1504 1504 1502 1501 1500 1499 1500 1500 1499 1499 1498 1497 1496 1495 1494 1492 1491 1489 1488 1486 1485 1484 1482 1481 1480 1479
1499 1499 1499 1498 1499 1499 1499 1499 1500 1500 1500 1500 1500 1501 1501 1501 1501 1501 1501 1500 1498 1497 1496 1496 1495 1495 1495 1494 1493 1492 1491 1490 1488 1487 1486 1484 1483 1481 1480 1479 1477 1476 1475
1496 1496 1496 1496 1496 1496 1496 1496 1496 1496 1496 1497 1497 1497 1497 1497 1497 1497 1497 1497 1497 1494 1492 1491 1491 1491 1491 1490 1489 1488 1487 1486 1484 1483 1482 1480 1479 1477 1476 1475 1473 1472 1471
1493 1493 1493 1493 1493 1493 1493 1493 1493 1493 1493 1493 1493 1493 1493 1493 1493 1493 1493 1492 1492 1492 1489 1488 1488 1487 1487 1486 1485 1484 1483 1481 1480 1479 1477 1476 1474 1473 1472 1470 1469 1468 1467
1490 1490 1490 1489 1490 1490 1490 1490 1490 1490 1489 1489 1489 1489 1489 1489 1489 1489 1489 1488 1488 1487 1485 1484 1484 1483 1482 1482 1480 1479 1478 1476 1475 1474 1472 1471 1470 1469 1468 1466 1465 1463 1462
1487 1487 1487 1486 1486 1486 1486 1486 1486 1486 1485 1485 1485 1485 1485 1485 1485 1485 1484 1484 1484 1483 1482 1480 1479 1478 1478 1477 1476 1475 1473 1472 1470 1469 1468 1466 1465 1464 1463 1461 1460 1459 1458
1483 1483 1483 1483 1483 1482 1482 1482 1482 1482 1481 1481 1481 1481 1480 1481 1480 1480 1480 1479 1479 1478 1477 1476 1474 1474 1473 1472 1471 1470 1468 1467 1466 1464 1463 1462 1460 1459 1458 1457 1455 1454 1453
1480 1479 1479 1479 1479 1478 1478 1478 1477 1477 1477 1476 1476 1476 1476 1476 1476 1475 1475 1474 1474 1473 1472 1471 1470 1469 1468 1467 1466 1465 1463 1462 1461 1459 1458 1457 1456 1455 1453 1452 1451 1450 1449
1475 1475 1475 1475 1475 1474 1474 1474 1473 1472 1472 1472 1471 1471 1471 1471 1471 1470 1470 1469 1469 1468 1467 1466 1465 1464 1463 1462 1461 1460 1459 1457 1455 1454 1453 1452 1451 1450 1448 1447 1446 1445 1444
1471 1471 1471 1471 1470 1470 1470 1469 1468 1468 1467 1467 1466 1466 1466 1466 1466 1465 1465 1464 1464 1463 1462 1461 1460 1459 1458 1458 1457 1456 1454 1452 1450 1450 1448 1447 1446 1444 1443 1442 1441 1440 1439
1466 1466 1466 1466 1466 1466 1465 1464 1464 1463 1462 1461 1461 1461 1461 1460 1460 1460 1459 1459 1458 1458 1457 1456 1455 1454 1453 1453 1452 1450 1450 1448 1446 1445 1443 1440 1440 1439 1438 1437 1436 1435 1434
1461 1461 1461 1461 1460 1460 1460 1459 1458 1457 1457 1456 1456 1455 1455 1455 1455 1454 1453 1453 1452 1452 1451 1450 1450 1449 1448 1448 1447 1446 1444 1443 1441 1440 1439 1436 1434 1434 1433 1432 1431 1429 1428
1455 1455 1455 1455 1454 1454 1454 1453 1453 1451 1451 1451 1450 1450 1450 1449 1449 1448 1448 1447 1446 1446 1446 1445 1444 1443 1443 1442 1442 1441 1439 1437 1435 1434 1434 1432 1429 1428 1427 1426 1425 1424 1423
1449 1449 1449 1449 1448 1448 1448 1447 1447 1446 1445 1445 1444 1444 1444 1443 1443 1442 1442 1441 1440 1440 1439 1438 1438 1437 1437 1436 1436 1435 1434 1433 1431 1429 1428 1427 1425 1424 1421 1420 1420 1419 1418